Regional Weather Roundup
Issued by NWS

Home | Current Version | Previous Version | Text Only | Print | Product List | Glossary Off
Versions: 1 2 3 4 5 6 7 8 9 10 11 12 13 14 15 16 17 18 19 20 21 22 23 24 25 26 27 28 29 30 31 32 33 34 35 36 37 38 39 40 41 42 43 44 45 46 47 48 49 50

000
ASUS43 KOAX 031010
RWRNE

WEATHER ROUNDUP FOR NEBRASKA
NATIONAL WEATHER SERVICE OMAHA NE
500 AM CDT THU SEP 03 2015

NOTES: SATELLITE DATA IS BEING USED TO AUGMENT CLOUD COVER ABOVE
       12000 FEET.
       "FAIR" INDICATES FEW OR NO CLOUDS BELOW 12,000 FEET WITH NO
       SIGNIFICANT WEATHER AND/OR OBSTRUCTIONS TO VISIBILITY.

  * THESE STATIONS DO NOT REPORT WEATHER SUCH AS RAIN...SNOW OR FOG.

NEZ001>004-019>022-054>056-031100-
NEBRASKA PANHANDLE

CITY           SKY/WX    TMP DP  RH WIND       PRES   REMARKS
SCOTTSBLUFF    PTCLDY    62  52  69 N3        29.91S
ALLIANCE       CLEAR     59  52  77 SE5       29.89F
CHADRON        CLEAR     65  47  52 S3        29.82S
KIMBALL        PTCLDY    60  45  57 W7        29.96F
SIDNEY         PTCLDY    58  45  62 W7        29.93F
$$

NEZ057>060-069>072-079>082-031100-
SOUTHWEST NEBRASKA

CITY           SKY/WX    TMP DP  RH WIND       PRES   REMARKS
NORTH PLATTE   CLEAR     63  60  90 E7        29.82F
IMPERIAL       PTCLDY    65  56  72 NW5       29.85S
LEXINGTON      CLEAR     70  61  73 SE7       29.82S
MCCOOK         PTCLDY    65  57  75 CALM      29.80F
OGALLALA       CLEAR     62  57  85 CALM      29.86S
$$

NEZ005>010-023>029-035>040-094-031100-
NORTH CENTRAL NEBRASKA

CITY           SKY/WX    TMP DP  RH WIND       PRES   REMARKS
VALENTINE      CLEAR     64  59  83 E3        29.82S
BROKEN BOW     CLEAR     61  59  93 CALM      29.82F
O`NEILL        CLEAR     67  66  96 SE6       29.81S
ORD            CLEAR     59  59 100 CALM      29.80F
THEDFORD       CLEAR     63  60  89 CALM      29.85S
$$

NEZ041-046>049-061>064-073>077-083>087-031100-
SOUTH CENTRAL NEBRASKA

CITY           SKY/WX    TMP DP  RH WIND       PRES   REMARKS
GRAND ISLAND   CLEAR     71  64  78 S10       29.82S
AURORA         CLEAR     71  65  82 S7        29.82S
HASTINGS       CLEAR     72  63  73 S9        29.83S
HEBRON         CLEAR     73  62  68 S10       29.84S
HOLDREGE       CLEAR     69  59  71 S7        29.83S
KEARNEY *      CLEAR     70  59  68 S10       29.82S
YORK           CLEAR     72  66  83 S8        29.83S
$$

NEZ011>018-030>034-042>045-031100-
NORTHEAST NEBRASKA

CITY           SKY/WX    TMP DP  RH WIND       PRES   REMARKS
NORFOLK        CLEAR     66  64  93 E5        29.82S
ALBION         CLEAR     64  62  93 SE5       29.82S
BLAIR          CLEAR     72  67  85 S10       29.84F
COLUMBUS *     CLEAR     72  63  73 CALM      29.83S
FREMONT        CLEAR     73  67  82 SE6       29.84S
TEKAMAH        CLEAR     71  69  93 SE6       29.83F
WAYNE          CLEAR     68  66  93 S3        29.83F
$$

NEZ050>053-065>068-078-088>093-031100-
SOUTHEAST NEBRASKA

CITY           SKY/WX    TMP DP  RH WIND       PRES   REMARKS
LINCOLN        CLEAR     76  66  71 S12       29.84S
OMAHA EPPLEY   CLEAR     75  69  81 S13       29.85S
BEATRICE       CLEAR     74  66  74 S8        29.86S
FALLS CITY     CLOUDY    74  68  81 S8        29.88S
NEBRASKA CITY  PTCLDY    73  65  78 S9        29.87S
PLATTSMOUTH    CLEAR     72  67  84 SE9       29.86S
$$

NEZ044-045-051>053-067-031100-
OMAHA AREA

CITY           SKY/WX    TMP DP  RH WIND       PRES   REMARKS
OMAHA EPPLEY   CLEAR     75  69  81 S13       29.85S
BLAIR          CLEAR     72  67  85 S10       29.84F
FREMONT        CLEAR     73  67  82 SE6       29.84S
MILLARD        CLEAR     71  68  90 SE6       29.84F
OFFUTT AFB     CLEAR     72  69  89 SE7       29.84F
PLATTSMOUTH    CLEAR     72  67  84 SE9       29.86S
WAHOO          FAIR      68  66  93 SE5       29.83F
$$




USA.gov is the U.S. government's official web portal to all federal, state and local government web resources and services.